This is the latest recevied weather packets stored in our database for station/object F4ETJ-1. If no packets are shown the sender has not sent any weather packets the latest 10 day(s).
| Time | Temp. | Humidity | Pressure | Rain* | Wind** | Luminosity | Snow |
|---|---|---|---|---|---|---|---|
| 1777718821 | 16.67° C | 83% | 1015.4 hPa | 1.78 mm | - | - | - |
| 1777718460 | 16.67° C | 84% | 1015.3 hPa | 1.02 mm | - | - | - |
| 1777718100 | 16.67° C | 83% | 1015.3 hPa | 1.27 mm | - | - | - |
| 1777717740 | 16.67° C | 83% | 1015.1 hPa | 1.02 mm | - | - | - |
| 1777717379 | 16.67° C | 82% | 1015.2 hPa | 0.76 mm | - | - | - |
| 1777717019 | 16.67° C | 82% | 1015.1 hPa | 0.76 mm | - | - | - |
| 1777716659 | 16.67° C | 81% | 1015.2 hPa | 0.76 mm | - | - | - |
| 1777716298 | 16.67° C | 82% | 1015.3 hPa | 0.76 mm | - | - | - |
| 1777715938 | 16.11° C | 79% | 1015.4 hPa | 0.76 mm | - | - | - |
| 1777715578 | 16.11° C | 80% | 1015.6 hPa | 0.25 mm | - | - | - |
| 1777715217 | 16.11° C | 79% | 1015.8 hPa | 0.25 mm | - | - | - |
| 1777714857 | 16.67° C | 77% | 1016.1 hPa | 0.25 mm | - | - | - |
| 1777714497 | 17.22° C | 73% | 1016.1 hPa | 0 mm | - | - | - |
| 1777714136 | 17.22° C | 71% | 1016 hPa | 0 mm | - | - | - |
| 1777713776 | 17.22° C | 69% | 1015.7 hPa | 0 mm | - | - | - |
| 1777713415 | 17.22° C | 69% | 1015.6 hPa | 0 mm | - | - | - |
| 1777713055 | 17.22° C | 69% | 1015.6 hPa | 0 mm | - | - | - |
| 1777712695 | 17.22° C | 70% | 1015.6 hPa | 0 mm | - | - | - |
| 1777712335 | 17.22° C | 70% | 1015.6 hPa | 0 mm | - | - | - |
| 1777711974 | 17.22° C | 70% | 1015.5 hPa | 0 mm | - | - | - |
| 1777711614 | 16.67° C | 71% | 1015.5 hPa | 0 mm | - | - | - |
| 1777711253 | 17.22° C | 69% | 1015.5 hPa | 0 mm | - | - | - |
| 1777710893 | 17.22° C | 67% | 1015.5 hPa | 0 mm | - | - | - |
| 1777710533 | 17.22° C | 66% | 1015.5 hPa | 0 mm | - | - | - |
| 1777710173 | 17.22° C | 66% | 1015.5 hPa | 0 mm | - | - | - |
* Rain latest hour (hover to see other rain measurements)
** Current wind speed in m/s (hover to see current wind gust speed)